Time,TemperatureF,DewpointF,PressureIn,WindDirection,WindDirectionDegrees,WindSpeedMPH,WindSpeedGustMPH,Humidity,HourlyPrecipIn,Conditions,Clouds,dailyrainin,SoftwareType,DateUTC
2013-10-17 00:01:00,54.9,48.9,30.09,North,360,3.0,9.0,80,0.00,,---,0.00,VWS V14.00,2013-10-17 06:01:00,
2013-10-17 00:06:00,54.7,48.7,30.08,North,360,3.0,6.0,80,0.00,,---,0.00,VWS V14.00,2013-10-17 06:06:00,
2013-10-17 00:11:00,54.5,48.8,30.08,North,360,4.0,8.0,81,0.00,,---,0.00,VWS V14.00,2013-10-17 06:11:00,
2013-10-17 00:16:00,54.3,48.6,30.08,North,360,4.0,8.0,81,0.00,,---,0.00,VWS V14.00,2013-10-17 06:16:00,
2013-10-17 00:21:00,54.2,48.5,30.08,North,360,5.0,9.0,81,0.00,,---,0.00,VWS V14.00,2013-10-17 06:21:00,
2013-10-17 00:26:00,54.2,48.5,30.08,North,360,6.0,9.0,81,0.00,,---,0.00,VWS V14.00,2013-10-17 06:26:00,
2013-10-17 00:31:00,54.1,48.7,30.09,North,360,4.0,9.0,82,0.00,,---,0.00,VWS V14.00,2013-10-17 06:31:00,
2013-10-17 00:36:00,53.9,48.5,30.08,North,360,6.0,6.0,82,0.00,,---,0.00,VWS V14.00,2013-10-17 06:36:00,
2013-10-17 00:41:00,53.6,48.2,30.08,North,360,4.0,6.0,82,0.00,,---,0.00,VWS V14.00,2013-10-17 06:41:00,
2013-10-17 00:46:00,53.4,48.4,30.09,North,360,6.0,7.0,83,0.00,,---,0.00,VWS V14.00,2013-10-17 06:46:00,
2013-10-17 00:51:00,53.2,48.2,30.09,North,360,4.0,8.0,83,0.00,,---,0.00,VWS V14.00,2013-10-17 06:51:00,
2013-10-17 00:56:00,53.0,48.0,30.08,North,360,6.0,8.0,83,0.00,,---,0.00,VWS V14.00,2013-10-17 06:56:00,
2013-10-17 01:01:00,52.9,47.9,30.08,North,360,8.0,9.0,83,0.00,,---,0.00,VWS V14.00,2013-10-17 07:01:00,
2013-10-17 01:06:00,52.7,47.7,30.08,North,360,2.0,9.0,83,0.00,,---,0.00,VWS V14.00,2013-10-17 07:06:00,
2013-10-17 01:11:00,52.5,47.5,30.08,North,360,4.0,10.0,83,0.00,,---,0.00,VWS V14.00,2013-10-17 07:11:00,
2013-10-17 01:16:00,52.4,47.4,30.08,North,360,3.0,10.0,83,0.00,,---,0.00,VWS V14.00,2013-10-17 07:16:00,
2013-10-17 01:21:00,52.3,47.3,30.08,North,360,4.0,10.0,83,0.00,,---,0.00,VWS V14.00,2013-10-17 07:21:00,
2013-10-17 01:26:00,52.1,47.1,30.08,North,360,3.0,10.0,83,0.00,,---,0.00,VWS V14.00,2013-10-17 07:26:00,
2013-10-17 01:31:00,51.9,47.2,30.08,North,360,3.0,10.0,84,0.00,,---,0.00,VWS V14.00,2013-10-17 07:31:00,
2013-10-17 01:36:00,51.7,47.0,30.08,North,360,3.0,9.0,84,0.00,,---,0.00,VWS V14.00,2013-10-17 07:36:00,
2013-10-17 01:41:00,51.6,46.9,30.08,North,360,3.0,9.0,84,0.00,,---,0.00,VWS V14.00,2013-10-17 07:41:00,
2013-10-17 01:46:00,51.4,46.7,30.08,North,349,2.0,9.0,84,0.00,,---,0.00,VWS V14.00,2013-10-17 07:46:00,
2013-10-17 01:51:00,51.3,46.6,30.08,North,360,5.0,9.0,84,0.00,,---,0.00,VWS V14.00,2013-10-17 07:51:00,
2013-10-17 01:56:00,51.2,46.5,30.08,North,360,2.0,9.0,84,0.00,,---,0.00,VWS V14.00,2013-10-17 07:56:00,
2013-10-17 02:01:00,51.1,46.4,30.08,North,360,4.0,9.0,84,0.00,,---,0.00,VWS V14.00,2013-10-17 08:01:00,
2013-10-17 02:06:00,51.0,46.7,30.08,North,360,4.0,6.0,85,0.00,,---,0.00,VWS V14.00,2013-10-17 08:06:00,
2013-10-17 02:08:00,51.0,46.7,30.08,North,360,3.0,6.0,85,0.00,,---,0.00,VWS V14.00,2013-10-17 08:08:00,
2013-10-17 02:13:00,50.9,46.2,30.08,North,360,3.0,6.0,84,0.00,,---,0.00,VWS V14.00,2013-10-17 08:13:00,
2013-10-17 02:18:00,50.9,46.2,30.08,North,360,6.0,6.0,84,0.00,,---,0.00,VWS V14.00,2013-10-17 08:18:00,
2013-10-17 02:23:00,50.8,46.2,30.08,North,360,2.0,6.0,84,0.00,,---,0.00,VWS V14.00,2013-10-17 08:23:00,
2013-10-17 02:28:00,50.6,46.3,30.08,North,360,3.0,6.0,85,0.00,,---,0.00,VWS V14.00,2013-10-17 08:28:00,
2013-10-17 02:33:00,50.5,46.2,30.08,North,360,3.0,7.0,85,0.00,,---,0.00,VWS V14.00,2013-10-17 08:33:00,
2013-10-17 02:38:00,50.4,46.1,30.08,North,360,6.0,9.0,85,0.00,,---,0.00,VWS V14.00,2013-10-17 08:38:00,
2013-10-17 02:43:00,50.3,46.0,30.07,North,360,4.0,10.0,85,0.00,,---,0.00,VWS V14.00,2013-10-17 08:43:00,
2013-10-17 02:48:00,50.3,46.0,30.07,North,360,3.0,10.0,85,0.00,,---,0.00,VWS V14.00,2013-10-17 08:48:00,
2013-10-17 02:53:00,50.2,45.9,30.07,North,360,2.0,10.0,85,0.00,,---,0.00,VWS V14.00,2013-10-17 08:53:00,
2013-10-17 02:58:00,50.0,45.7,30.07,North,360,4.0,10.0,85,0.00,,---,0.00,VWS V14.00,2013-10-17 08:58:00,
2013-10-17 03:03:00,49.9,45.6,30.07,North,360,1.0,5.0,85,0.00,,---,0.00,VWS V14.00,2013-10-17 09:03:00,
2013-10-17 03:08:00,49.9,45.9,30.07,North,360,5.0,6.0,86,0.00,,---,0.00,VWS V14.00,2013-10-17 09:08:00,
2013-10-17 03:13:00,49.8,45.8,30.07,North,360,1.0,6.0,86,0.00,,---,0.00,VWS V14.00,2013-10-17 09:13:00,
2013-10-17 03:18:00,49.7,45.7,30.07,North,360,2.0,6.0,86,0.00,,---,0.00,VWS V14.00,2013-10-17 09:18:00,
2013-10-17 03:23:00,49.6,45.6,30.07,North,360,2.0,6.0,86,0.00,,---,0.00,VWS V14.00,2013-10-17 09:23:00,
2013-10-17 03:27:00,49.6,45.6,30.07,North,360,2.0,6.0,86,0.00,,---,0.00,VWS V14.00,2013-10-17 09:27:00,
2013-10-17 03:32:00,49.4,45.4,30.07,North,360,4.0,4.0,86,0.00,,---,0.00,VWS V14.00,2013-10-17 09:32:00,
2013-10-17 03:37:00,49.3,45.3,30.07,North,360,3.0,4.0,86,0.00,,---,0.00,VWS V14.00,2013-10-17 09:37:00,
2013-10-17 03:42:00,49.2,45.5,30.07,North,360,3.0,4.0,87,0.00,,---,0.00,VWS V14.00,2013-10-17 09:42:00,
2013-10-17 03:47:00,49.2,45.5,30.07,North,360,3.0,4.0,87,0.00,,---,0.00,VWS V14.00,2013-10-17 09:47:00,
2013-10-17 03:52:00,49.1,45.4,30.07,North,360,2.0,4.0,87,0.00,,---,0.00,VWS V14.00,2013-10-17 09:52:00,
2013-10-17 03:57:00,48.9,45.2,30.07,North,360,1.0,4.0,87,0.00,,---,0.00,VWS V14.00,2013-10-17 09:57:00,
2013-10-17 04:02:00,48.9,45.2,30.08,North,360,1.0,2.0,87,0.00,,---,0.00,VWS V14.00,2013-10-17 10:02:00,
2013-10-17 04:07:00,48.8,45.1,30.08,North,360,3.0,4.0,87,0.00,,---,0.00,VWS V14.00,2013-10-17 10:07:00,
2013-10-17 04:12:00,48.7,45.3,30.08,North,360,2.0,5.0,88,0.00,,---,0.00,VWS V14.00,2013-10-17 10:12:00,
2013-10-17 04:17:00,48.6,45.2,30.08,North,360,3.0,5.0,88,0.00,,---,0.00,VWS V14.00,2013-10-17 10:17:00,
2013-10-17 04:22:00,48.5,45.1,30.08,North,360,3.0,5.0,88,0.00,,---,0.00,VWS V14.00,2013-10-17 10:22:00,
2013-10-17 04:27:00,48.4,45.0,30.08,North,360,2.0,5.0,88,0.00,,---,0.00,VWS V14.00,2013-10-17 10:27:00,
2013-10-17 04:32:00,48.2,44.8,30.08,North,360,2.0,4.0,88,0.00,,---,0.00,VWS V14.00,2013-10-17 10:32:00,
2013-10-17 04:37:00,48.1,44.7,30.08,North,360,1.0,4.0,88,0.00,,---,0.00,VWS V14.00,2013-10-17 10:37:00,
2013-10-17 04:42:00,48.0,44.6,30.08,North,360,1.0,4.0,88,0.00,,---,0.00,VWS V14.00,2013-10-17 10:42:00,
2013-10-17 04:47:00,47.9,44.8,30.08,North,360,0.0,4.0,89,0.00,,---,0.00,VWS V14.00,2013-10-17 10:47:00,
2013-10-17 04:52:00,47.8,44.7,30.08,North,360,1.0,4.0,89,0.00,,---,0.00,VWS V14.00,2013-10-17 10:52:00,
2013-10-17 04:57:00,47.8,44.7,30.08,North,360,0.0,4.0,89,0.00,,---,0.00,VWS V14.00,2013-10-17 10:57:00,
2013-10-17 05:02:00,47.7,44.6,30.08,North,360,2.0,3.0,89,0.00,,---,0.00,VWS V14.00,2013-10-17 11:02:00,
2013-10-17 05:07:00,47.6,44.5,30.08,North,360,2.0,3.0,89,0.00,,---,0.00,VWS V14.00,2013-10-17 11:07:00,
2013-10-17 05:12:00,47.4,44.3,30.09,North,360,2.0,3.0,89,0.00,,---,0.00,VWS V14.00,2013-10-17 11:12:00,
2013-10-17 05:17:00,47.4,44.3,30.09,North,360,3.0,5.0,89,0.00,,---,0.00,VWS V14.00,2013-10-17 11:17:00,
2013-10-17 05:22:00,47.3,44.2,30.09,North,360,2.0,5.0,89,0.00,,---,0.00,VWS V14.00,2013-10-17 11:22:00,
2013-10-17 05:27:00,47.3,44.5,30.09,North,360,2.0,5.0,90,0.00,,---,0.00,VWS V14.00,2013-10-17 11:27:00,
2013-10-17 05:32:00,47.2,44.4,30.09,North,360,3.0,4.0,90,0.00,,---,0.00,VWS V14.00,2013-10-17 11:32:00,
2013-10-17 05:37:00,47.2,44.4,30.09,North,360,2.0,4.0,90,0.00,,---,0.00,VWS V14.00,2013-10-17 11:37:00,
2013-10-17 05:42:00,47.1,44.3,30.09,North,360,3.0,4.0,90,0.00,,---,0.00,VWS V14.00,2013-10-17 11:42:00,
2013-10-17 05:47:00,47.0,44.2,30.09,North,360,1.0,4.0,90,0.00,,---,0.00,VWS V14.00,2013-10-17 11:47:00,
2013-10-17 05:52:00,46.9,44.1,30.09,North,360,1.0,4.0,90,0.00,,---,0.00,VWS V14.00,2013-10-17 11:52:00,
2013-10-17 05:57:00,46.9,44.1,30.09,North,360,0.0,4.0,90,0.00,,---,0.00,VWS V14.00,2013-10-17 11:57:00,
2013-10-17 06:02:00,47.0,44.2,30.09,North,360,3.0,4.0,90,0.00,,---,0.00,VWS V14.00,2013-10-17 12:02:00,
2013-10-17 06:07:00,46.6,43.8,30.09,North,360,3.0,7.0,90,0.00,,---,0.00,VWS V14.00,2013-10-17 12:07:00,
2013-10-17 06:12:00,46.4,43.6,30.10,North,360,2.0,7.0,90,0.00,,---,0.00,VWS V14.00,2013-10-17 12:12:00,
2013-10-17 06:17:00,46.3,43.5,30.09,North,360,2.0,7.0,90,0.00,,---,0.00,VWS V14.00,2013-10-17 12:17:00,
2013-10-17 06:22:00,46.3,43.8,30.09,North,360,2.0,7.0,91,0.00,,---,0.00,VWS V14.00,2013-10-17 12:22:00,
2013-10-17 06:27:00,46.4,43.9,30.09,North,360,2.0,7.0,91,0.00,,---,0.00,VWS V14.00,2013-10-17 12:27:00,
2013-10-17 06:32:00,46.4,43.9,30.10,North,360,3.0,3.0,91,0.00,,---,0.00,VWS V14.00,2013-10-17 12:32:00,
2013-10-17 06:37:00,46.4,43.9,30.09,North,360,1.0,3.0,91,0.00,,---,0.00,VWS V14.00,2013-10-17 12:37:00,
2013-10-17 06:42:00,46.6,44.1,30.10,North,360,3.0,5.0,91,0.00,,---,0.00,VWS V14.00,2013-10-17 12:42:00,
2013-10-17 06:47:00,46.7,44.2,30.10,North,360,1.0,5.0,91,0.00,,---,0.00,VWS V14.00,2013-10-17 12:47:00,
2013-10-17 06:52:00,46.9,44.4,30.10,North,360,3.0,5.0,91,0.00,,---,0.00,VWS V14.00,2013-10-17 12:52:00,
2013-10-17 06:57:00,47.1,44.6,30.10,North,360,4.0,5.0,91,0.00,,---,0.00,VWS V14.00,2013-10-17 12:57:00,
2013-10-17 07:02:00,47.3,44.8,30.10,North,360,3.0,4.0,91,0.00,,---,0.00,VWS V14.00,2013-10-17 13:02:00,
2013-10-17 07:07:00,47.4,44.9,30.11,North,360,2.0,4.0,91,0.00,,---,0.00,VWS V14.00,2013-10-17 13:07:00,
2013-10-17 07:12:00,47.5,45.0,30.11,North,360,3.0,5.0,91,0.00,,---,0.00,VWS V14.00,2013-10-17 13:12:00,
2013-10-17 07:17:00,47.7,45.2,30.11,North,360,1.0,5.0,91,0.00,,---,0.00,VWS V14.00,2013-10-17 13:17:00,
2013-10-17 07:22:00,48.0,45.5,30.11,North,360,1.0,5.0,91,0.00,,---,0.00,VWS V14.00,2013-10-17 13:22:00,
2013-10-17 07:27:00,48.5,46.0,30.12,North,360,0.0,5.0,91,0.00,,---,0.00,VWS V14.00,2013-10-17 13:27:00,
2013-10-17 07:32:00,48.8,46.0,30.12,North,360,0.0,1.0,90,0.00,,---,0.00,VWS V14.00,2013-10-17 13:32:00,
2013-10-17 07:37:00,49.2,46.7,30.12,North,360,0.0,4.0,91,0.00,,---,0.00,VWS V14.00,2013-10-17 13:37:00,
2013-10-17 07:42:00,49.6,46.8,30.12,North,360,0.0,5.0,90,0.00,,---,0.00,VWS V14.00,2013-10-17 13:42:00,
2013-10-17 07:47:00,50.0,47.2,30.12,North,360,2.0,5.0,90,0.00,,---,0.00,VWS V14.00,2013-10-17 13:47:00,
2013-10-17 07:52:00,50.1,47.0,30.13,North,360,1.0,5.0,89,0.00,,---,0.00,VWS V14.00,2013-10-17 13:52:00,
2013-10-17 07:57:00,50.5,47.4,30.13,North,360,0.0,5.0,89,0.00,,---,0.00,VWS V14.00,2013-10-17 13:57:00,
2013-10-17 08:02:00,50.8,47.7,30.13,North,360,4.0,6.0,89,0.00,,---,0.00,VWS V14.00,2013-10-17 14:02:00,
2013-10-17 08:07:00,51.0,47.6,30.13,North,360,4.0,6.0,88,0.00,,---,0.00,VWS V14.00,2013-10-17 14:07:00,
2013-10-17 08:12:00,51.4,47.7,30.13,North,360,0.0,6.0,87,0.00,,---,0.00,VWS V14.00,2013-10-17 14:12:00,
2013-10-17 08:17:00,51.9,47.8,30.13,North,360,1.0,6.0,86,0.00,,---,0.00,VWS V14.00,2013-10-17 14:17:00,
2013-10-17 08:22:00,52.3,47.9,30.13,North,360,0.0,6.0,85,0.00,,---,0.00,VWS V14.00,2013-10-17 14:22:00,
2013-10-17 08:27:00,52.6,47.9,30.14,North,360,2.0,8.0,84,0.00,,---,0.00,VWS V14.00,2013-10-17 14:27:00,
2013-10-17 08:32:00,52.7,47.7,30.14,North,360,1.0,4.0,83,0.00,,---,0.00,VWS V14.00,2013-10-17 14:32:00,
2013-10-17 08:37:00,52.8,48.1,30.14,North,360,3.0,7.0,84,0.00,,---,0.00,VWS V14.00,2013-10-17 14:37:00,
2013-10-17 08:42:00,53.4,48.7,30.14,North,360,2.0,7.0,84,0.00,,---,0.00,VWS V14.00,2013-10-17 14:42:00,
2013-10-17 08:47:00,53.7,48.3,30.14,North,360,3.0,7.0,82,0.00,,---,0.00,VWS V14.00,2013-10-17 14:47:00,
2013-10-17 08:52:00,53.9,48.5,30.15,North,360,1.0,7.0,82,0.00,,---,0.00,VWS V14.00,2013-10-17 14:52:00,
2013-10-17 08:57:00,54.3,48.9,30.15,North,360,1.0,7.0,82,0.00,,---,0.00,VWS V14.00,2013-10-17 14:57:00,
2013-10-17 09:02:00,54.3,48.9,30.15,North,360,4.0,6.0,82,0.00,,---,0.00,VWS V14.00,2013-10-17 15:02:00,
2013-10-17 09:07:00,54.0,48.6,30.15,North,360,2.0,7.0,82,0.00,,---,0.00,VWS V14.00,2013-10-17 15:07:00,
2013-10-17 09:12:00,54.6,49.2,30.15,North,360,2.0,7.0,82,0.00,,---,0.00,VWS V14.00,2013-10-17 15:12:00,
2013-10-17 09:17:00,55.2,49.5,30.15,North,360,1.0,7.0,81,0.00,,---,0.00,VWS V14.00,2013-10-17 15:17:00,
2013-10-17 09:22:00,56.0,49.9,30.15,North,360,3.0,7.0,80,0.00,,---,0.00,VWS V14.00,2013-10-17 15:22:00,
2013-10-17 09:27:00,56.3,49.2,30.15,North,360,1.0,7.0,77,0.00,,---,0.00,VWS V14.00,2013-10-17 15:27:00,
2013-10-17 09:32:00,56.2,49.4,30.15,North,360,3.0,4.0,78,0.00,,---,0.00,VWS V14.00,2013-10-17 15:32:00,
2013-10-17 09:37:00,56.6,49.8,30.15,North,360,8.0,10.0,78,0.00,,---,0.00,VWS V14.00,2013-10-17 15:37:00,
2013-10-17 09:42:00,57.3,49.5,30.15,North,360,5.0,10.0,75,0.00,,---,0.00,VWS V14.00,2013-10-17 15:42:00,
2013-10-17 09:47:00,57.8,49.2,30.15,North,350,5.0,10.0,73,0.00,,---,0.00,VWS V14.00,2013-10-17 15:47:00,
2013-10-17 09:52:00,58.2,49.6,30.15,North,360,5.0,10.0,73,0.00,,---,0.00,VWS V14.00,2013-10-17 15:52:00,
2013-10-17 09:57:00,58.7,50.1,30.15,North,9,3.0,10.0,73,0.00,,---,0.00,VWS V14.00,2013-10-17 15:57:00,
2013-10-17 10:02:00,58.9,49.9,30.15,North,360,2.0,7.0,72,0.00,,---,0.00,VWS V14.00,2013-10-17 16:02:00,
2013-10-17 10:07:00,59.2,49.8,30.14,North,360,2.0,7.0,71,0.00,,---,0.00,VWS V14.00,2013-10-17 16:07:00,
2013-10-17 10:12:00,59.4,49.6,30.14,North,360,1.0,10.0,70,0.00,,---,0.00,VWS V14.00,2013-10-17 16:12:00,
2013-10-17 10:17:00,59.8,49.6,30.14,North,360,4.0,10.0,69,0.00,,---,0.00,VWS V14.00,2013-10-17 16:17:00,
2013-10-17 10:22:00,59.8,48.4,30.14,NW,304,4.0,10.0,66,0.00,,---,0.00,VWS V14.00,2013-10-17 16:22:00,
2013-10-17 10:27:00,59.1,47.4,30.14,North,360,3.0,10.0,65,0.00,,---,0.00,VWS V14.00,2013-10-17 16:27:00,
2013-10-17 10:32:00,59.4,47.7,30.14,North,360,0.0,1.0,65,0.00,,---,0.00,VWS V14.00,2013-10-17 16:32:00,
2013-10-17 10:37:00,59.4,47.2,30.14,North,360,2.0,6.0,64,0.00,,---,0.00,VWS V14.00,2013-10-17 16:37:00,
2013-10-17 10:42:00,59.3,47.5,30.14,West,273,1.0,6.0,65,0.00,,---,0.00,VWS V14.00,2013-10-17 16:42:00,
2013-10-17 10:47:00,59.2,47.0,30.14,West,266,3.0,7.0,64,0.00,,---,0.00,VWS V14.00,2013-10-17 16:47:00,
2013-10-17 10:52:00,59.7,47.5,30.13,North,360,5.0,7.0,64,0.00,,---,0.00,VWS V14.00,2013-10-17 16:52:00,
2013-10-17 10:57:00,59.8,46.8,30.13,North,360,5.0,7.0,62,0.00,,---,0.00,VWS V14.00,2013-10-17 16:57:00,
2013-10-17 11:02:00,60.4,48.2,30.13,North,360,0.0,4.0,64,0.00,,---,0.00,VWS V14.00,2013-10-17 17:02:00,
2013-10-17 11:07:00,61.4,48.3,30.13,North,350,2.0,5.0,62,0.00,,---,0.00,VWS V14.00,2013-10-17 17:07:00,
2013-10-17 11:12:00,62.2,48.2,30.13,North,355,0.0,6.0,60,0.00,,---,0.00,VWS V14.00,2013-10-17 17:12:00,
2013-10-17 11:17:00,61.8,48.2,30.13,North,360,2.0,6.0,61,0.00,,---,0.00,VWS V14.00,2013-10-17 17:17:00,
2013-10-17 11:22:00,62.0,48.4,30.12,North,360,0.0,6.0,61,0.00,,---,0.00,VWS V14.00,2013-10-17 17:22:00,
2013-10-17 11:27:00,62.3,48.7,30.12,North,360,1.0,6.0,61,0.00,,---,0.00,VWS V14.00,2013-10-17 17:27:00,
2013-10-17 11:32:00,62.8,49.2,30.12,North,360,3.0,6.0,61,0.00,,---,0.00,VWS V14.00,2013-10-17 17:32:00,
2013-10-17 11:37:00,62.9,47.5,30.12,North,360,1.0,6.0,57,0.00,,---,0.00,VWS V14.00,2013-10-17 17:37:00,
2013-10-17 11:42:00,63.1,48.1,30.12,North,360,1.0,6.0,58,0.00,,---,0.00,VWS V14.00,2013-10-17 17:42:00,
2013-10-17 11:47:00,63.5,48.5,30.11,North,360,5.0,6.0,58,0.00,,---,0.00,VWS V14.00,2013-10-17 17:47:00,
2013-10-17 11:52:00,62.9,47.9,30.11,North,360,3.0,6.0,58,0.00,,---,0.00,VWS V14.00,2013-10-17 17:52:00,
2013-10-17 11:57:00,63.0,48.5,30.11,North,360,3.0,6.0,59,0.00,,---,0.00,VWS V14.00,2013-10-17 17:57:00,
2013-10-17 12:02:00,63.2,47.7,30.11,North,360,1.0,3.0,57,0.00,,---,0.00,VWS V14.00,2013-10-17 18:02:00,
2013-10-17 12:08:00,63.9,47.9,30.10,North,360,6.0,7.0,56,0.00,,---,0.00,VWS V14.00,2013-10-17 18:08:00,
2013-10-17 12:13:00,63.9,47.4,30.10,North,360,1.0,7.0,55,0.00,,---,0.00,VWS V14.00,2013-10-17 18:13:00,
2013-10-17 12:18:00,64.0,47.5,30.10,SW,227,0.0,7.0,55,0.00,,---,0.00,VWS V14.00,2013-10-17 18:18:00,
2013-10-17 12:23:00,64.2,47.2,30.09,North,360,5.0,7.0,54,0.00,,---,0.00,VWS V14.00,2013-10-17 18:23:00,
2013-10-17 12:28:00,64.4,46.9,30.09,North,360,5.0,7.0,53,0.00,,---,0.00,VWS V14.00,2013-10-17 18:28:00,
2013-10-17 12:33:00,64.3,45.3,30.09,NW,304,3.0,5.0,50,0.00,,---,0.00,VWS V14.00,2013-10-17 18:33:00,
2013-10-17 12:38:00,64.7,46.2,30.08,North,360,1.0,5.0,51,0.00,,---,0.00,VWS V14.00,2013-10-17 18:38:00,
2013-10-17 12:43:00,65.0,44.3,30.08,North,360,1.0,5.0,47,0.00,,---,0.00,VWS V14.00,2013-10-17 18:43:00,
2013-10-17 12:48:00,65.0,43.7,30.08,North,360,0.0,5.0,46,0.00,,---,0.00,VWS V14.00,2013-10-17 18:48:00,
2013-10-17 12:53:00,65.7,44.4,30.08,North,360,0.0,5.0,46,0.00,,---,0.00,VWS V14.00,2013-10-17 18:53:00,
2013-10-17 12:58:00,65.9,44.0,30.08,North,360,0.0,5.0,45,0.00,,---,0.00,VWS V14.00,2013-10-17 18:58:00,
2013-10-17 13:03:00,66.4,44.4,30.07,North,360,2.0,5.0,45,0.00,,---,0.00,VWS V14.00,2013-10-17 19:03:00,
2013-10-17 13:08:00,66.9,44.9,30.07,North,360,2.0,5.0,45,0.00,,---,0.00,VWS V14.00,2013-10-17 19:08:00,
2013-10-17 13:12:00,67.4,44.2,30.06,North,360,0.0,6.0,43,0.00,,---,0.00,VWS V14.00,2013-10-17 19:12:00,
2013-10-17 13:18:00,68.1,44.8,30.06,North,360,7.0,7.0,43,0.00,,---,0.00,VWS V14.00,2013-10-17 19:18:00,
2013-10-17 13:23:00,67.5,44.2,30.07,North,360,0.0,7.0,43,0.00,,---,0.00,VWS V14.00,2013-10-17 19:23:00,
2013-10-17 13:28:00,67.9,44.0,30.06,North,360,1.0,7.0,42,0.00,,---,0.00,VWS V14.00,2013-10-17 19:28:00,
2013-10-17 13:31:00,67.5,44.2,30.06,North,360,1.0,7.0,43,0.00,,---,0.00,VWS V14.00,2013-10-17 19:31:00,
2013-10-17 13:36:00,67.3,44.7,30.06,North,360,1.0,6.0,44,0.00,,---,0.00,VWS V14.00,2013-10-17 19:36:00,
2013-10-17 13:41:00,67.5,44.2,30.05,North,360,4.0,7.0,43,0.00,,---,0.00,VWS V14.00,2013-10-17 19:41:00,
2013-10-17 13:46:00,67.1,43.9,30.06,WSW,242,4.0,7.0,43,0.00,,---,0.00,VWS V14.00,2013-10-17 19:46:00,
2013-10-17 13:51:00,67.5,44.2,30.05,North,360,4.0,7.0,43,0.00,,---,0.00,VWS V14.00,2013-10-17 19:51:00,
2013-10-17 13:56:00,67.6,44.3,30.05,North,360,3.0,7.0,43,0.00,,---,0.00,VWS V14.00,2013-10-17 19:56:00,
2013-10-17 14:01:00,67.7,44.4,30.05,North,360,1.0,7.0,43,0.00,,---,0.00,VWS V14.00,2013-10-17 20:01:00,
2013-10-17 14:06:00,68.1,44.8,30.05,West,275,0.0,3.0,43,0.00,,---,0.00,VWS V14.00,2013-10-17 20:06:00,
2013-10-17 14:11:00,68.2,44.3,30.04,North,360,1.0,5.0,42,0.00,,---,0.00,VWS V14.00,2013-10-17 20:11:00,
2013-10-17 14:16:00,69.0,45.0,30.04,North,360,5.0,5.0,42,0.00,,---,0.00,VWS V14.00,2013-10-17 20:16:00,
2013-10-17 14:21:00,68.9,44.2,30.03,North,360,1.0,5.0,41,0.00,,---,0.00,VWS V14.00,2013-10-17 20:21:00,
2013-10-17 14:26:00,69.4,44.7,30.03,North,360,1.0,5.0,41,0.00,,---,0.00,VWS V14.00,2013-10-17 20:26:00,
2013-10-17 14:31:00,70.0,43.9,30.03,North,360,3.0,5.0,39,0.00,,---,0.00,VWS V14.00,2013-10-17 20:31:00,
2013-10-17 14:36:00,69.9,43.8,30.03,North,360,3.0,5.0,39,0.00,,---,0.00,VWS V14.00,2013-10-17 20:36:00,
2013-10-17 14:41:00,69.7,43.0,30.03,North,360,2.0,5.0,38,0.00,,---,0.00,VWS V14.00,2013-10-17 20:41:00,
2013-10-17 14:46:00,69.5,43.5,30.03,North,360,2.0,5.0,39,0.00,,---,0.00,VWS V14.00,2013-10-17 20:46:00,
2013-10-17 14:50:00,69.4,43.4,30.03,South,190,1.0,6.0,39,0.00,,---,0.00,VWS V14.00,2013-10-17 20:50:00,
2013-10-17 14:55:00,69.9,43.8,30.03,North,360,0.0,6.0,39,0.00,,---,0.00,VWS V14.00,2013-10-17 20:55:00,
2013-10-17 15:00:00,70.5,44.4,30.03,North,360,2.0,6.0,39,0.00,,---,0.00,VWS V14.00,2013-10-17 21:00:00,
2013-10-17 15:05:00,70.1,44.7,30.03,North,360,3.0,6.0,40,0.00,,---,0.00,VWS V14.00,2013-10-17 21:05:00,
2013-10-17 15:10:00,69.5,44.8,30.02,North,360,3.0,6.0,41,0.00,,---,0.00,VWS V14.00,2013-10-17 21:10:00,
2013-10-17 15:15:00,69.2,45.2,30.02,North,360,0.0,6.0,42,0.00,,---,0.00,VWS V14.00,2013-10-17 21:15:00,
2013-10-17 15:20:00,69.0,45.0,30.02,North,360,5.0,8.0,42,0.00,,---,0.00,VWS V14.00,2013-10-17 21:20:00,
2013-10-17 15:25:00,68.9,45.5,30.02,North,360,5.0,8.0,43,0.00,,---,0.00,VWS V14.00,2013-10-17 21:25:00,
2013-10-17 15:30:00,68.7,44.7,30.01,North,360,4.0,8.0,42,0.00,,---,0.00,VWS V14.00,2013-10-17 21:30:00,
2013-10-17 15:35:00,68.8,45.4,30.01,North,360,4.0,7.0,43,0.00,,---,0.00,VWS V14.00,2013-10-17 21:35:00,
2013-10-17 15:40:00,69.0,45.0,30.02,North,360,4.0,7.0,42,0.00,,---,0.00,VWS V14.00,2013-10-17 21:40:00,
2013-10-17 15:45:00,69.0,45.6,30.01,North,360,5.0,7.0,43,0.00,,---,0.00,VWS V14.00,2013-10-17 21:45:00,
2013-10-17 15:50:00,68.9,46.1,30.02,North,360,4.0,9.0,44,0.00,,---,0.00,VWS V14.00,2013-10-17 21:50:00,
2013-10-17 15:55:00,69.1,45.7,30.01,North,360,3.0,9.0,43,0.00,,---,0.00,VWS V14.00,2013-10-17 21:55:00,
2013-10-17 16:00:00,69.1,45.1,30.01,North,360,3.0,9.0,42,0.00,,---,0.00,VWS V14.00,2013-10-17 22:00:00,
2013-10-17 16:05:00,69.6,45.5,30.01,North,360,5.0,6.0,42,0.00,,---,0.00,VWS V14.00,2013-10-17 22:05:00,
2013-10-17 16:10:00,69.6,45.5,30.01,North,360,1.0,6.0,42,0.00,,---,0.00,VWS V14.00,2013-10-17 22:10:00,
2013-10-17 16:15:00,69.7,46.8,30.01,North,360,2.0,7.0,44,0.00,,---,0.00,VWS V14.00,2013-10-17 22:15:00,
2013-10-17 16:20:00,69.6,46.8,30.01,North,360,2.0,7.0,44,0.00,,---,0.00,VWS V14.00,2013-10-17 22:20:00,
2013-10-17 16:25:00,69.8,45.7,30.01,North,360,3.0,7.0,42,0.00,,---,0.00,VWS V14.00,2013-10-17 22:25:00,
2013-10-17 16:30:00,69.5,46.0,30.01,North,360,4.0,7.0,43,0.00,,---,0.00,VWS V14.00,2013-10-17 22:30:00,
2013-10-17 16:35:00,69.4,45.3,30.01,North,360,3.0,5.0,42,0.00,,---,0.00,VWS V14.00,2013-10-17 22:35:00,
2013-10-17 16:40:00,69.4,46.0,30.01,North,360,1.0,5.0,43,0.00,,---,0.00,VWS V14.00,2013-10-17 22:40:00,
2013-10-17 16:45:00,69.8,46.3,30.01,North,360,2.0,5.0,43,0.00,,---,0.00,VWS V14.00,2013-10-17 22:45:00,
2013-10-17 16:50:00,69.8,46.3,30.01,North,360,4.0,5.0,43,0.00,,---,0.00,VWS V14.00,2013-10-17 22:50:00,
2013-10-17 16:55:00,69.4,46.0,30.01,North,360,2.0,5.0,43,0.00,,---,0.00,VWS V14.00,2013-10-17 22:55:00,
2013-10-17 17:00:00,69.1,46.3,30.01,North,360,3.0,5.0,44,0.00,,---,0.00,VWS V14.00,2013-10-17 23:00:00,
2013-10-17 17:05:00,69.1,45.7,30.00,North,360,3.0,4.0,43,0.00,,---,0.00,VWS V14.00,2013-10-17 23:05:00,
2013-10-17 17:10:00,68.9,46.1,30.00,North,360,4.0,4.0,44,0.00,,---,0.00,VWS V14.00,2013-10-17 23:10:00,
2013-10-17 17:15:00,68.3,46.2,30.00,North,360,4.0,5.0,45,0.00,,---,0.00,VWS V14.00,2013-10-17 23:15:00,
2013-10-17 17:20:00,67.9,46.4,30.00,North,360,3.0,5.0,46,0.00,,---,0.00,VWS V14.00,2013-10-17 23:20:00,
2013-10-17 17:25:00,68.1,46.6,30.00,North,360,3.0,5.0,46,0.00,,---,0.00,VWS V14.00,2013-10-17 23:25:00,
2013-10-17 17:30:00,68.3,46.7,30.00,North,360,2.0,5.0,46,0.00,,---,0.00,VWS V14.00,2013-10-17 23:30:00,
2013-10-17 17:35:00,68.3,46.7,30.00,North,360,2.0,4.0,46,0.00,,---,0.00,VWS V14.00,2013-10-17 23:35:00,
2013-10-17 17:40:00,68.0,47.0,30.00,North,360,3.0,4.0,47,0.00,,---,0.00,VWS V14.00,2013-10-17 23:40:00,
2013-10-17 17:45:00,67.5,47.7,30.00,North,360,3.0,4.0,49,0.00,,---,0.00,VWS V14.00,2013-10-17 23:45:00,
2013-10-17 17:50:00,66.9,47.7,30.00,North,360,2.0,4.0,50,0.00,,---,0.00,VWS V14.00,2013-10-17 23:50:00,
2013-10-17 17:55:00,66.5,47.3,30.00,North,360,2.0,4.0,50,0.00,,---,0.00,VWS V14.00,2013-10-17 23:55:00,
2013-10-17 18:00:00,66.3,47.7,30.00,North,360,3.0,4.0,51,0.00,,---,0.00,VWS V14.00,2013-10-18 00:00:00,
2013-10-17 18:05:00,66.1,48.0,30.00,North,360,3.0,4.0,52,0.00,,---,0.00,VWS V14.00,2013-10-18 00:05:00,
2013-10-17 18:10:00,65.9,47.8,30.00,North,360,4.0,4.0,52,0.00,,---,0.00,VWS V14.00,2013-10-18 00:10:00,
2013-10-17 18:15:00,65.8,48.2,30.00,North,360,4.0,4.0,53,0.00,,---,0.00,VWS V14.00,2013-10-18 00:15:00,
2013-10-17 18:20:00,65.5,48.4,30.00,North,360,3.0,4.0,54,0.00,,---,0.00,VWS V14.00,2013-10-18 00:20:00,
2013-10-17 18:25:00,65.3,48.2,30.00,North,360,3.0,4.0,54,0.00,,---,0.00,VWS V14.00,2013-10-18 00:25:00,
2013-10-17 18:30:00,65.2,48.6,30.01,North,360,2.0,5.0,55,0.00,,---,0.00,VWS V14.00,2013-10-18 00:30:00,
2013-10-17 18:35:00,65.1,48.5,30.01,North,360,4.0,5.0,55,0.00,,---,0.00,VWS V14.00,2013-10-18 00:35:00,
2013-10-17 18:40:00,64.9,48.8,30.00,North,360,4.0,5.0,56,0.00,,---,0.00,VWS V14.00,2013-10-18 00:40:00,
2013-10-17 18:45:00,64.7,48.7,30.00,North,360,3.0,5.0,56,0.00,,---,0.00,VWS V14.00,2013-10-18 00:45:00,
2013-10-17 18:50:00,64.6,48.6,30.00,North,360,3.0,5.0,56,0.00,,---,0.00,VWS V14.00,2013-10-18 00:50:00,
2013-10-17 18:55:00,64.5,48.5,30.00,North,360,3.0,5.0,56,0.00,,---,0.00,VWS V14.00,2013-10-18 00:55:00,
2013-10-17 19:00:00,64.3,49.2,30.00,North,360,4.0,5.0,58,0.00,,---,0.00,VWS V14.00,2013-10-18 01:00:00,
2013-10-17 19:05:00,63.9,48.8,30.00,North,360,3.0,4.0,58,0.00,,---,0.00,VWS V14.00,2013-10-18 01:05:00,
2013-10-17 19:10:00,63.7,49.1,30.00,North,360,3.0,4.0,59,0.00,,---,0.00,VWS V14.00,2013-10-18 01:10:00,
2013-10-17 19:15:00,63.5,49.4,30.01,North,360,3.0,4.0,60,0.00,,---,0.00,VWS V14.00,2013-10-18 01:15:00,
2013-10-17 19:20:00,63.3,49.2,30.01,North,360,3.0,4.0,60,0.00,,---,0.00,VWS V14.00,2013-10-18 01:20:00,
2013-10-17 19:25:00,63.1,49.0,30.01,North,360,4.0,4.0,60,0.00,,---,0.00,VWS V14.00,2013-10-18 01:25:00,
2013-10-17 19:30:00,62.8,49.2,30.01,North,360,4.0,4.0,61,0.00,,---,0.00,VWS V14.00,2013-10-18 01:30:00,
2013-10-17 19:35:00,62.7,49.1,30.01,North,360,3.0,5.0,61,0.00,,---,0.00,VWS V14.00,2013-10-18 01:35:00,
2013-10-17 19:40:00,62.8,49.2,30.01,North,360,4.0,5.0,61,0.00,,---,0.00,VWS V14.00,2013-10-18 01:40:00,
2013-10-17 19:45:00,62.9,49.3,30.01,North,360,4.0,5.0,61,0.00,,---,0.00,VWS V14.00,2013-10-18 01:45:00,
2013-10-17 19:50:00,62.6,49.4,30.01,North,360,4.0,5.0,62,0.00,,---,0.00,VWS V14.00,2013-10-18 01:50:00,
2013-10-17 19:55:00,62.2,49.0,30.01,North,360,5.0,5.0,62,0.00,,---,0.00,VWS V14.00,2013-10-18 01:55:00,
2013-10-17 20:00:00,61.8,49.1,30.01,North,360,5.0,5.0,63,0.00,,---,0.00,VWS V14.00,2013-10-18 02:00:00,
2013-10-17 20:05:00,61.4,49.1,30.01,North,360,4.0,6.0,64,0.00,,---,0.00,VWS V14.00,2013-10-18 02:05:00,
2013-10-17 20:10:00,61.0,49.2,30.02,North,360,4.0,6.0,65,0.00,,---,0.00,VWS V14.00,2013-10-18 02:10:00,
2013-10-17 20:15:00,60.7,48.9,30.02,North,360,4.0,6.0,65,0.00,,---,0.00,VWS V14.00,2013-10-18 02:15:00,
2013-10-17 20:20:00,60.6,49.2,30.02,North,360,4.0,6.0,66,0.00,,---,0.00,VWS V14.00,2013-10-18 02:20:00,
2013-10-17 20:25:00,60.5,49.1,30.02,North,360,4.0,6.0,66,0.00,,---,0.00,VWS V14.00,2013-10-18 02:25:00,
2013-10-17 20:30:00,60.5,49.1,30.02,North,360,4.0,6.0,66,0.00,,---,0.00,VWS V14.00,2013-10-18 02:30:00,
2013-10-17 20:35:00,60.5,49.5,30.02,North,360,4.0,5.0,67,0.00,,---,0.00,VWS V14.00,2013-10-18 02:35:00,
2013-10-17 20:40:00,60.5,49.5,30.02,North,360,5.0,5.0,67,0.00,,---,0.00,VWS V14.00,2013-10-18 02:40:00,
2013-10-17 20:45:00,60.7,49.7,30.02,North,360,4.0,5.0,67,0.00,,---,0.00,VWS V14.00,2013-10-18 02:45:00,
2013-10-17 20:50:00,60.7,49.7,30.02,North,360,3.0,5.0,67,0.00,,---,0.00,VWS V14.00,2013-10-18 02:50:00,
2013-10-17 20:55:00,60.7,49.7,30.02,North,360,4.0,5.0,67,0.00,,---,0.00,VWS V14.00,2013-10-18 02:55:00,
2013-10-17 21:00:00,60.9,49.9,30.02,North,360,3.0,5.0,67,0.00,,---,0.00,VWS V14.00,2013-10-18 03:00:00,
2013-10-17 21:05:00,60.9,49.9,30.02,North,360,4.0,4.0,67,0.00,,---,0.00,VWS V14.00,2013-10-18 03:05:00,
2013-10-17 21:10:00,60.9,49.9,30.02,North,360,4.0,7.0,67,0.00,,---,0.00,VWS V14.00,2013-10-18 03:10:00,
2013-10-17 21:15:00,60.9,49.9,30.02,North,360,3.0,7.0,67,0.00,,---,0.00,VWS V14.00,2013-10-18 03:15:00,
2013-10-17 21:20:00,60.8,49.8,30.02,North,360,4.0,7.0,67,0.00,,---,0.00,VWS V14.00,2013-10-18 03:20:00,
2013-10-17 21:25:00,60.2,49.6,30.02,North,360,4.0,7.0,68,0.00,,---,0.00,VWS V14.00,2013-10-18 03:25:00,
2013-10-17 21:29:00,59.9,49.7,30.02,North,360,4.0,7.0,69,0.00,,---,0.00,VWS V14.00,2013-10-18 03:29:00,
2013-10-17 21:34:00,59.7,49.5,30.02,North,360,4.0,5.0,69,0.00,,---,0.00,VWS V14.00,2013-10-18 03:34:00,
2013-10-17 21:39:00,59.7,49.9,30.02,North,360,4.0,5.0,70,0.00,,---,0.00,VWS V14.00,2013-10-18 03:39:00,
2013-10-17 21:44:00,60.0,49.4,30.02,North,360,5.0,6.0,68,0.00,,---,0.00,VWS V14.00,2013-10-18 03:44:00,
2013-10-17 21:49:00,60.5,49.5,30.02,North,360,4.0,7.0,67,0.00,,---,0.00,VWS V14.00,2013-10-18 03:49:00,
2013-10-17 21:54:00,60.7,49.7,30.02,North,360,4.0,7.0,67,0.00,,---,0.00,VWS V14.00,2013-10-18 03:54:00,
2013-10-17 21:59:00,60.6,49.6,30.02,North,360,4.0,7.0,67,0.00,,---,0.00,VWS V14.00,2013-10-18 03:59:00,
2013-10-17 22:01:00,60.6,49.6,30.02,North,360,3.0,7.0,67,0.00,,---,0.00,VWS V14.00,2013-10-18 04:01:00,
2013-10-17 22:06:00,60.1,49.5,30.02,North,360,4.0,5.0,68,0.00,,---,0.00,VWS V14.00,2013-10-18 04:06:00,
2013-10-17 22:11:00,59.7,49.5,30.02,North,360,4.0,5.0,69,0.00,,---,0.00,VWS V14.00,2013-10-18 04:11:00,
2013-10-17 22:16:00,59.5,49.3,30.02,North,360,4.0,5.0,69,0.00,,---,0.00,VWS V14.00,2013-10-18 04:16:00,
2013-10-17 22:21:00,59.4,49.2,30.02,North,360,4.0,5.0,69,0.00,,---,0.00,VWS V14.00,2013-10-18 04:21:00,
2013-10-17 22:26:00,59.3,49.1,30.02,North,360,5.0,6.0,69,0.00,,---,0.00,VWS V14.00,2013-10-18 04:26:00,
2013-10-17 22:31:00,59.1,49.3,30.02,North,360,5.0,6.0,70,0.00,,---,0.00,VWS V14.00,2013-10-18 04:31:00,
2013-10-17 22:36:00,58.9,49.2,30.02,North,360,4.0,5.0,70,0.00,,---,0.00,VWS V14.00,2013-10-18 04:36:00,
2013-10-17 22:41:00,58.6,49.2,30.02,North,360,4.0,6.0,71,0.00,,---,0.00,VWS V14.00,2013-10-18 04:41:00,
2013-10-17 22:46:00,58.4,49.4,30.02,North,360,5.0,6.0,72,0.00,,---,0.00,VWS V14.00,2013-10-18 04:46:00,
2013-10-17 22:51:00,58.4,49.4,30.01,North,360,4.0,6.0,72,0.00,,---,0.00,VWS V14.00,2013-10-18 04:51:00,
2013-10-17 22:55:00,58.4,49.4,30.01,North,360,4.0,6.0,72,0.00,,---,0.00,VWS V14.00,2013-10-18 04:55:00,
2013-10-17 23:00:00,58.4,49.4,30.01,North,360,4.0,6.0,72,0.00,,---,0.00,VWS V14.00,2013-10-18 05:00:00,
2013-10-17 23:05:00,58.3,49.3,30.01,North,360,4.0,5.0,72,0.00,,---,0.00,VWS V14.00,2013-10-18 05:05:00,
2013-10-17 23:10:00,58.4,49.4,30.01,North,360,3.0,5.0,72,0.00,,---,0.00,VWS V14.00,2013-10-18 05:10:00,
2013-10-17 23:15:00,58.5,49.5,30.01,North,360,4.0,6.0,72,0.00,,---,0.00,VWS V14.00,2013-10-18 05:15:00,
2013-10-17 23:20:00,58.5,49.5,30.01,North,360,3.0,6.0,72,0.00,,---,0.00,VWS V14.00,2013-10-18 05:20:00,
2013-10-17 23:25:00,58.4,49.4,30.01,North,360,3.0,6.0,72,0.00,,---,0.00,VWS V14.00,2013-10-18 05:25:00,
2013-10-17 23:30:00,58.2,49.2,30.01,North,360,3.0,6.0,72,0.00,,---,0.00,VWS V14.00,2013-10-18 05:30:00,
2013-10-17 23:35:00,57.7,49.1,30.00,North,360,4.0,5.0,73,0.00,,---,0.00,VWS V14.00,2013-10-18 05:35:00,
2013-10-17 23:40:00,57.5,49.3,30.01,North,360,5.0,6.0,74,0.00,,---,0.00,VWS V14.00,2013-10-18 05:40:00,
2013-10-17 23:45:00,57.3,49.1,30.00,North,360,5.0,7.0,74,0.00,,---,0.00,VWS V14.00,2013-10-18 05:45:00,
2013-10-17 23:50:00,57.2,49.0,30.00,North,360,5.0,7.0,74,0.00,,---,0.00,VWS V14.00,2013-10-18 05:50:00,
2013-10-17 23:55:00,57.2,49.0,30.01,North,360,4.0,7.0,74,0.00,,---,0.00,VWS V14.00,2013-10-18 05:55:00,